TimeCST,TemperatureF,Dew PointF,Humidity,Sea Level PressureIn,VisibilityMPH,Wind Direction,Wind SpeedMPH,Gust SpeedMPH,PrecipitationIn,Events,Conditions,WindDirDegrees,DateUTC
12:26 AM,8.6,5.0,85,30.16,10.0,North,5.8,-,N/A,,Mostly Cloudy,10,2012-12-27 06:26:00
12:53 AM,10.9,6.1,81,30.22,10.0,NNE,4.6,-,N/A,,Overcast,30,2012-12-27 06:53:00
1:53 AM,12.0,8.1,84,30.22,10.0,NNE,3.5,-,N/A,,Overcast,20,2012-12-27 07:53:00
2:53 AM,12.0,8.1,84,30.23,10.0,Calm,Calm,-,N/A,,Overcast,0,2012-12-27 08:53:00
3:41 AM,8.6,6.8,92,30.16,9.0,NNE,4.6,-,N/A,,Scattered Clouds,30,2012-12-27 09:41:00
3:53 AM,10.0,6.1,84,30.22,9.0,NE,4.6,-,N/A,,Scattered Clouds,40,2012-12-27 09:53:00
4:53 AM,10.0,6.1,84,30.20,8.0,ENE,5.8,-,N/A,,Clear,60,2012-12-27 10:53:00
5:53 AM,10.0,7.0,87,30.17,8.0,ENE,8.1,-,N/A,,Clear,60,2012-12-27 11:53:00
6:53 AM,10.0,7.0,87,30.19,7.0,ENE,5.8,-,N/A,,Clear,70,2012-12-27 12:53:00
7:53 AM,10.9,8.1,88,30.19,6.0,East,4.6,-,N/A,,Partly Cloudy,80,2012-12-27 13:53:00
8:53 AM,14.0,10.0,84,30.18,7.0,East,5.8,-,N/A,,Scattered Clouds,90,2012-12-27 14:53:00
9:53 AM,17.1,14.0,88,30.22,8.0,South,3.5,-,N/A,,Overcast,170,2012-12-27 15:53:00
10:04 AM,17.6,14.0,86,30.14,8.0,Calm,Calm,-,N/A,,Overcast,0,2012-12-27 16:04:00
10:17 AM,17.6,14.0,86,30.13,8.0,East,3.5,-,N/A,,Overcast,90,2012-12-27 16:17:00
10:53 AM,19.0,15.1,85,30.19,8.0,NE,6.9,-,N/A,,Overcast,50,2012-12-27 16:53:00
11:53 AM,21.0,16.0,81,30.15,10.0,East,9.2,-,N/A,,Overcast,90,2012-12-27 17:53:00
12:53 PM,25.0,17.1,72,30.08,10.0,ESE,10.4,-,N/A,,Mostly Cloudy,120,2012-12-27 18:53:00
1:50 PM,24.8,17.6,74,30.01,10.0,ESE,9.2,16.1,N/A,,Overcast,120,2012-12-27 19:50:00
1:53 PM,25.0,18.0,75,30.06,10.0,ESE,10.4,-,N/A,,Overcast,110,2012-12-27 19:53:00
2:53 PM,26.1,18.0,71,30.04,10.0,East,11.5,16.1,N/A,,Overcast,100,2012-12-27 20:53:00
3:53 PM,26.1,18.0,71,30.06,10.0,East,8.1,-,N/A,,Overcast,100,2012-12-27 21:53:00
4:53 PM,26.1,18.0,71,30.05,10.0,East,6.9,-,N/A,,Overcast,100,2012-12-27 22:53:00
5:30 PM,26.6,17.6,69,29.99,10.0,ESE,6.9,-,N/A,,Overcast,110,2012-12-27 23:30:00
6:37 PM,26.6,19.4,74,30.00,10.0,East,6.9,-,N/A,,Overcast,100,2012-12-28 00:37:00
6:53 PM,26.1,19.0,75,30.06,10.0,East,5.8,-,N/A,,Overcast,100,2012-12-28 00:53:00
7:04 PM,26.6,19.4,74,30.00,10.0,East,5.8,-,N/A,,Overcast,100,2012-12-28 01:04:00
7:12 PM,26.6,19.4,74,30.00,10.0,East,4.6,-,N/A,,Overcast,90,2012-12-28 01:12:00
7:53 PM,26.1,19.9,78,30.06,10.0,ENE,4.6,-,N/A,,Overcast,70,2012-12-28 01:53:00
8:53 PM,26.1,19.9,78,30.05,10.0,NE,5.8,-,N/A,,Overcast,50,2012-12-28 02:53:00
9:53 PM,26.1,19.9,78,30.05,10.0,East,4.6,-,N/A,,Overcast,80,2012-12-28 03:53:00
10:53 PM,26.1,19.9,78,30.04,10.0,East,6.9,-,N/A,,Overcast,100,2012-12-28 04:53:00
11:53 PM,26.1,19.9,78,30.03,10.0,ESE,6.9,-,N/A,,Overcast,110,2012-12-28 05:53:00